FENGYUN 1C DEB

Satellite information

Favourite Embed

Satellite Type and Status

DEBRISIN ORBIT

Key statistics

Satellite FENGYUN 1C DEB at a glance.

Uptime

9664

Days in orbit

Revolutions

≈ 14.9

Per day

Orbit

SSO

Sun Synchronous Orbit

Inclination

98.8

Latest

Satellite identification and parameters

Extended collection of information and parameters for FENGYUN 1C DEB.

Object identification

Identified? True

Debris? True

Object name: FENGYUN 1C DEB

International designator: 1999-025AHJ

Object number (NORAD): 30496

Object ID (CCSDS): 30496

Country: PEOPLES REPUBLIC OF CHINA (PRC)

Current information (Y/N): Y

RCS size: SMALL

Orbital parameters

Period: 96.432 minutes

Inclination: 98.7818 deg

SMA: 6965.877 km

Apoapsis: 678.284 km

Periapsis: 497.2 km

RAAN: 196.0906 deg

Eccentricy: 0.01299794

Argument of periapsis: 261.3255 deg

Mean anomaly: 97.322 deg

Mean motion: 14.93272596 rev/day

Mean motion (dot): 0.00010238 rev/day2

B* drag term: 0.00083446915 1/REarth

Two-line elements (TLE)

Creation date: Oct. 23, 2025, 6:40 p.m.

Reference frame: TEME

Reference center: EARTH

Epoch: Oct. 23, 2025, 4:19 a.m. UTC

TLE line 0: 0 FENGYUN 1C DEB

TLE line 1: 1 30496U 99025AHJ 25296.18016804 .00010238 00000-0 83447-3 0 9992

TLE line 2: 2 30496 98.7818 196.0906 0129979 261.3255 97.3220 14.93272596 3898

Live tracking on map

Real-time ground track for satellite FENGYUN 1C DEB.

In-orbit conjunctions

A list of the most updated potential collisions computed for object FENGYUN 1C DEB.

Target Orbit TCA Probability of collision Miss distance Type
CZ-6A DEB LEO 2025-08-16 22:16:42 0.0001475022 619.0 (m) DEBRIS
SL-8 DEB * LEO 2024-11-15 19:48:53 0.002189701 125.0 (m) DEBRIS
NOAA 17 DEB SSO 2024-11-12 23:52:33 0.001004744 287.0 (m) DEBRIS
CZ-4 DEB SSO 2024-08-09 02:31:32 0.0001373308 289.0 (m) DEBRIS

Associated space launch

Chinese polar orbiting meteorological satellite

FENGYUN 1C DEB was lifted into orbit during the mission ‘Long March 4B | Feng Yun 1C’, on board a Long March 4B space rocket.

The launch took place on May 10, 1999, 1:33 a.m. from Launch Complex 7.

For more information about the launch, click the button.

Launch to space Long March 4B | Feng Yun 1C
Long March 4B | Feng Yun 1C

Agency: N/A

Status: Launch Successful

Launch date: May 10, 1999, 1:33 a.m. UTC

Rocket: Long March 4B

Launch pad: Launch Complex 7

Location: Taiyuan Satellite Launch Center, People's Republic of China

...

Latest news about this satellite

There are no fresh news available about this satellite. Check back as we update our databases every day.


Newsletter sign-up

Weekly statistics, charts and insights to help you stay on top of the space industry.